Time,TemperatureF,DewpointF,PressureIn,WindDirection,WindDirectionDegrees,WindSpeedMPH,WindSpeedGustMPH,Humidity,HourlyPrecipIn,Conditions,Clouds,dailyrainin,SolarRadiationWatts/m^2,SoftwareType,DateUTC
2013-07-02 00:02:00,78.9,62.4,29.80,North,355,0.0,0.0,57,0.00,CLR,SCT,0.00,0.0,WeatherDisplay:10.37,2013-07-02 07:02:00,
2013-07-02 00:07:00,78.9,61.9,29.80,North,355,0.0,0.0,56,0.00,CLR,SCT,0.00,0.0,WeatherDisplay:10.37,2013-07-02 07:07:00,
2013-07-02 00:12:00,78.8,61.8,29.80,North,355,0.0,0.0,56,0.00,CLR,SCT,0.00,0.0,WeatherDisplay:10.37,2013-07-02 07:12:00,
2013-07-02 00:17:00,78.8,61.8,29.80,North,355,0.0,0.0,56,0.00,CLR,SCT,0.00,0.0,WeatherDisplay:10.37,2013-07-02 07:17:00,
2013-07-02 00:22:00,78.9,60.8,29.81,North,355,1.0,0.0,54,0.00,CLR,SCT,0.00,0.0,WeatherDisplay:10.37,2013-07-02 07:22:00,
2013-07-02 00:27:00,79.0,59.9,29.81,North,350,0.0,0.0,52,0.00,CLR,SCT,0.00,0.0,WeatherDisplay:10.37,2013-07-02 07:27:00,
2013-07-02 00:32:00,79.0,60.4,29.81,North,350,1.2,0.0,53,0.00,CLR,SCT,0.00,0.0,WeatherDisplay:10.37,2013-07-02 07:32:00,
2013-07-02 00:37:00,78.9,60.3,29.80,North,350,0.0,0.0,53,0.00,CLR,SCT,0.00,0.0,WeatherDisplay:10.37,2013-07-02 07:37:00,
2013-07-02 00:42:00,78.7,60.1,29.80,North,350,0.0,0.0,53,0.00,CLR,SCT,0.00,0.0,WeatherDisplay:10.37,2013-07-02 07:42:00,
2013-07-02 00:47:00,78.5,60.5,29.80,North,350,0.0,0.0,54,0.00,CLR,SCT,0.00,0.0,WeatherDisplay:10.37,2013-07-02 07:47:00,
2013-07-02 00:52:00,78.3,60.3,29.80,North,350,0.0,0.0,54,0.00,CLR,SCT,0.00,0.0,WeatherDisplay:10.37,2013-07-02 07:52:00,
2013-07-02 00:57:00,78.2,61.2,29.80,North,350,0.0,0.0,56,0.00,CLR,SCT,0.00,0.0,WeatherDisplay:10.37,2013-07-02 07:57:00,
2013-07-02 01:02:00,77.9,60.9,29.80,North,350,1.2,1.2,56,0.00,CLR,SCT,0.00,0.0,WeatherDisplay:10.37,2013-07-02 08:02:00,
2013-07-02 01:07:00,77.7,60.2,29.80,North,350,2.3,2.3,55,0.00,CLR,SCT,0.00,0.0,WeatherDisplay:10.37,2013-07-02 08:07:00,
2013-07-02 01:12:00,77.9,59.4,29.79,North,350,1.2,1.2,53,0.00,CLR,SCT,0.00,0.0,WeatherDisplay:10.37,2013-07-02 08:12:00,
2013-07-02 01:17:00,77.9,59.4,29.80,North,350,0.0,0.0,53,0.00,CLR,SCT,0.00,0.0,WeatherDisplay:10.37,2013-07-02 08:17:00,
2013-07-02 01:22:00,77.7,60.8,29.80,North,350,1.2,1.2,56,0.00,CLR,SCT,0.00,0.0,WeatherDisplay:10.37,2013-07-02 08:22:00,
2013-07-02 01:27:00,77.3,60.4,29.80,North,350,1.2,1.2,56,0.00,CLR,SCT,0.00,0.0,WeatherDisplay:10.37,2013-07-02 08:27:00,
2013-07-02 01:32:00,77.3,59.4,29.80,North,350,1.2,0.0,54,0.00,CLR,SCT,0.00,0.0,WeatherDisplay:10.37,2013-07-02 08:32:00,
2013-07-02 01:37:00,77.2,59.3,29.80,North,350,1.2,1.2,54,0.00,CLR,SCT,0.00,0.0,WeatherDisplay:10.37,2013-07-02 08:37:00,
2013-07-02 01:42:00,76.9,59.5,29.80,North,350,2.3,2.3,55,0.00,CLR,SCT,0.00,0.0,WeatherDisplay:10.37,2013-07-02 08:42:00,
2013-07-02 01:47:00,76.9,59.0,29.79,North,350,1.2,1.2,54,0.00,CLR,SCT,0.00,0.0,WeatherDisplay:10.37,2013-07-02 08:47:00,
2013-07-02 01:52:00,76.9,57.4,29.79,North,350,2.3,2.3,51,0.00,CLR,SCT,0.00,0.0,WeatherDisplay:10.37,2013-07-02 08:52:00,
2013-07-02 01:57:00,76.8,57.3,29.79,North,350,1.2,0.0,51,0.00,CLR,SCT,0.00,0.0,WeatherDisplay:10.37,2013-07-02 08:57:00,
2013-07-02 02:02:00,76.8,57.3,29.78,North,350,1.2,0.0,51,0.00,CLR,SCT,0.00,0.0,WeatherDisplay:10.37,2013-07-02 09:02:00,
2013-07-02 02:07:00,76.7,57.2,29.78,North,350,2.3,2.3,51,0.00,CLR,SCT,0.00,0.0,WeatherDisplay:10.37,2013-07-02 09:07:00,
2013-07-02 02:12:00,76.7,58.3,29.78,North,350,2.3,2.3,53,0.00,CLR,SCT,0.00,0.0,WeatherDisplay:10.37,2013-07-02 09:12:00,
2013-07-02 02:17:00,76.4,58.0,29.78,North,350,0.0,0.0,53,0.00,CLR,SCT,0.00,0.0,WeatherDisplay:10.37,2013-07-02 09:17:00,
2013-07-02 02:22:00,76.2,57.8,29.78,North,350,0.0,0.0,53,0.00,CLR,SCT,0.00,0.0,WeatherDisplay:10.37,2013-07-02 09:22:00,
2013-07-02 02:27:00,76.2,57.8,29.78,North,350,0.0,0.0,53,0.00,CLR,SCT,0.00,0.0,WeatherDisplay:10.37,2013-07-02 09:27:00,
2013-07-02 02:32:00,75.8,58.5,29.78,North,350,0.0,0.0,55,0.00,CLR,SCT,0.00,0.0,WeatherDisplay:10.37,2013-07-02 09:32:00,
2013-07-02 02:38:00,75.4,58.6,29.78,North,350,0.0,0.0,56,0.00,CLR,SCT,0.00,0.0,WeatherDisplay:10.37,2013-07-02 09:38:00,
2013-07-02 02:43:00,75.2,58.9,29.78,North,350,1.2,1.2,57,0.00,CLR,SCT,0.00,0.0,WeatherDisplay:10.37,2013-07-02 09:43:00,
2013-07-02 02:48:00,75.0,58.7,29.79,North,350,0.0,0.0,57,0.00,CLR,SCT,0.00,0.0,WeatherDisplay:10.37,2013-07-02 09:48:00,
2013-07-02 02:53:00,74.9,58.6,29.79,North,350,1.2,0.0,57,0.00,CLR,SCT,0.00,0.0,WeatherDisplay:10.37,2013-07-02 09:53:00,
2013-07-02 02:58:00,74.9,58.6,29.79,North,350,0.0,0.0,57,0.00,CLR,SCT,0.00,0.0,WeatherDisplay:10.37,2013-07-02 09:58:00,
2013-07-02 03:03:00,74.9,58.6,29.79,North,350,0.0,0.0,57,0.00,CLR,SCT,0.00,0.0,WeatherDisplay:10.37,2013-07-02 10:03:00,
2013-07-02 03:08:00,75.0,58.7,29.79,North,350,0.0,0.0,57,0.00,CLR,SCT,0.00,0.0,WeatherDisplay:10.37,2013-07-02 10:08:00,
2013-07-02 03:13:00,75.0,58.2,29.79,North,350,1.2,1.2,56,0.00,CLR,SCT,0.00,0.0,WeatherDisplay:10.37,2013-07-02 10:13:00,
2013-07-02 03:18:00,75.2,57.9,29.79,North,350,1.2,1.2,55,0.00,CLR,SCT,0.00,0.0,WeatherDisplay:10.37,2013-07-02 10:18:00,
2013-07-02 03:23:00,75.5,57.7,29.79,North,350,1.2,0.0,54,0.00,CLR,SCT,0.00,0.0,WeatherDisplay:10.37,2013-07-02 10:23:00,
2013-07-02 03:28:00,75.7,58.4,29.78,North,350,0.0,0.1,55,0.00,CLR,SCT,0.00,0.0,WeatherDisplay:10.37,2013-07-02 10:28:00,
2013-07-02 03:33:00,75.8,58.0,29.78,North,350,0.0,0.0,54,0.00,CLR,SCT,0.00,0.0,WeatherDisplay:10.37,2013-07-02 10:33:00,
2013-07-02 03:38:00,75.9,58.1,29.78,North,350,0.0,0.0,54,0.00,CLR,SCT,0.00,0.0,WeatherDisplay:10.37,2013-07-02 10:38:00,
2013-07-02 03:43:00,76.0,57.6,29.78,North,350,2.3,2.3,53,0.00,CLR,SCT,0.00,0.0,WeatherDisplay:10.37,2013-07-02 10:43:00,
2013-07-02 03:48:00,76.4,56.9,29.78,North,350,2.3,2.3,51,0.00,CLR,SCT,0.00,0.0,WeatherDisplay:10.37,2013-07-02 10:48:00,
2013-07-02 03:53:00,76.8,57.3,29.78,North,350,1.2,1.2,51,0.00,CLR,SCT,0.00,0.0,WeatherDisplay:10.37,2013-07-02 10:53:00,
2013-07-02 03:58:00,76.8,57.8,29.78,North,350,1.2,0.0,52,0.00,CLR,SCT,0.00,0.0,WeatherDisplay:10.37,2013-07-02 10:58:00,
2013-07-02 04:03:00,76.8,57.8,29.78,North,350,0.0,0.0,52,0.00,CLR,SCT,0.00,0.0,WeatherDisplay:10.37,2013-07-02 11:03:00,
2013-07-02 04:08:00,76.6,58.2,29.78,North,350,1.2,1.2,53,0.00,CLR,SCT,0.00,0.0,WeatherDisplay:10.37,2013-07-02 11:08:00,
2013-07-02 04:13:00,76.3,58.9,29.77,North,350,2.3,2.3,55,0.00,CLR,SCT,0.00,0.0,WeatherDisplay:10.37,2013-07-02 11:13:00,
2013-07-02 04:18:00,76.1,58.2,29.77,North,350,2.3,2.3,54,0.00,CLR,SCT,0.00,0.0,WeatherDisplay:10.37,2013-07-02 11:18:00,
2013-07-02 04:23:00,76.2,57.3,29.77,North,350,1.2,1.2,52,0.00,CLR,SCT,0.00,0.0,WeatherDisplay:10.37,2013-07-02 11:23:00,
2013-07-02 04:28:00,76.2,57.8,29.77,North,350,0.0,0.0,53,0.00,CLR,SCT,0.00,0.0,WeatherDisplay:10.37,2013-07-02 11:28:00,
2013-07-02 04:33:00,76.0,58.2,29.77,North,350,1.2,0.0,54,0.00,CLR,SCT,0.00,0.0,WeatherDisplay:10.37,2013-07-02 11:33:00,
2013-07-02 04:38:00,75.7,58.4,29.77,North,10,3.5,3.5,55,0.00,CLR,SCT,0.00,0.0,WeatherDisplay:10.37,2013-07-02 11:38:00,
2013-07-02 04:43:00,75.6,58.3,29.77,North,10,2.3,2.3,55,0.00,CLR,SCT,0.00,0.0,WeatherDisplay:10.37,2013-07-02 11:43:00,
2013-07-02 04:48:00,75.5,58.2,29.77,North,10,1.2,1.2,55,0.00,CLR,SCT,0.00,0.0,WeatherDisplay:10.37,2013-07-02 11:48:00,
2013-07-02 04:53:00,75.6,57.8,29.77,North,10,0.0,0.0,54,0.00,CLR,SCT,0.00,0.0,WeatherDisplay:10.37,2013-07-02 11:53:00,
2013-07-02 04:58:00,75.8,57.4,29.76,North,10,0.0,0.0,53,0.00,CLR,SCT,0.00,0.0,WeatherDisplay:10.37,2013-07-02 11:58:00,
2013-07-02 05:03:00,76.0,57.1,29.76,North,10,1.2,1.2,52,0.00,CLR,SCT,0.00,0.0,WeatherDisplay:10.37,2013-07-02 12:03:00,
2013-07-02 05:08:00,76.7,56.7,29.76,NNE,12,3.5,3.5,50,0.00,CLR,SCT,0.00,0.0,WeatherDisplay:10.37,2013-07-02 12:08:00,
2013-07-02 05:13:00,77.5,56.3,29.76,NNE,32,2.3,2.3,48,0.00,CLR,SCT,0.00,0.0,WeatherDisplay:10.37,2013-07-02 12:13:00,
2013-07-02 05:18:00,77.2,57.1,29.76,NNE,17,2.3,2.3,50,0.00,CLR,SCT,0.00,0.0,WeatherDisplay:10.37,2013-07-02 12:18:00,
2013-07-02 05:23:00,76.9,56.8,29.77,North,5,2.3,2.3,50,0.00,CLR,SCT,0.00,0.0,WeatherDisplay:10.37,2013-07-02 12:23:00,
2013-07-02 05:28:00,77.1,57.0,29.77,NNE,23,3.5,3.5,50,0.00,CLR,SCT,0.00,0.0,WeatherDisplay:10.37,2013-07-02 12:28:00,
2013-07-02 05:33:00,77.0,56.4,29.76,NNE,13,3.5,3.5,49,0.00,CLR,SCT,0.00,0.0,WeatherDisplay:10.37,2013-07-02 12:33:00,
2013-07-02 05:38:00,77.4,56.2,29.76,NE,44,2.3,2.3,48,0.00,CLR,SCT,0.00,0.0,WeatherDisplay:10.37,2013-07-02 12:38:00,
2013-07-02 05:43:00,77.6,56.4,29.77,NE,38,2.3,2.3,48,0.00,CLR,SCT,0.00,0.0,WeatherDisplay:10.37,2013-07-02 12:43:00,
2013-07-02 05:48:00,77.9,56.6,29.77,NNW,348,2.3,2.3,48,0.00,CLR,SCT,0.00,5.0,WeatherDisplay:10.37,2013-07-02 12:48:00,
2013-07-02 05:53:00,77.7,56.4,29.77,NNE,28,1.2,1.2,48,0.00,CLR,SCT,0.00,11.0,WeatherDisplay:10.37,2013-07-02 12:53:00,
2013-07-02 05:58:00,77.8,55.4,29.77,NNE,16,1.2,1.2,46,0.00,CLR,SCT,0.00,18.0,WeatherDisplay:10.37,2013-07-02 12:58:00,
2013-07-02 06:03:00,78.1,55.6,29.77,NNE,26,2.3,0.0,46,0.00,CLR,SCT,0.00,25.0,WeatherDisplay:10.37,2013-07-02 13:03:00,
2013-07-02 06:08:00,78.1,55.6,29.76,NNE,17,3.5,3.5,46,0.00,CLR,SCT,0.00,28.0,WeatherDisplay:10.37,2013-07-02 13:08:00,
2013-07-02 06:13:00,78.0,56.1,29.76,NE,34,2.3,2.3,47,0.00,CLR,SCT,0.00,32.0,WeatherDisplay:10.37,2013-07-02 13:13:00,
2013-07-02 06:18:00,77.6,56.4,29.77,NE,34,1.2,1.2,48,0.00,CLR,SCT,0.00,35.0,WeatherDisplay:10.37,2013-07-02 13:18:00,
2013-07-02 06:23:00,77.6,56.4,29.77,NE,36,2.3,2.3,48,0.00,CLR,SCT,0.00,39.0,WeatherDisplay:10.37,2013-07-02 13:23:00,
2013-07-02 06:28:00,77.4,57.3,29.76,NE,36,2.3,0.0,50,0.00,CLR,SCT,0.00,40.0,WeatherDisplay:10.37,2013-07-02 13:28:00,
2013-07-02 06:33:00,77.1,57.6,29.76,NE,36,2.0,2.0,51,0.00,CLR,SCT,0.00,42.0,WeatherDisplay:10.37,2013-07-02 13:33:00,
2013-07-02 06:38:00,77.0,57.5,29.76,NE,38,2.3,2.3,51,0.00,CLR,SCT,0.00,40.0,WeatherDisplay:10.37,2013-07-02 13:38:00,
2013-07-02 06:43:00,77.1,58.1,29.76,NE,37,1.2,1.2,52,0.00,CLR,SCT,0.00,40.0,WeatherDisplay:10.37,2013-07-02 13:43:00,
2013-07-02 06:48:00,77.1,58.6,29.76,NNE,17,2.3,2.3,53,0.00,CLR,SCT,0.00,39.0,WeatherDisplay:10.37,2013-07-02 13:48:00,
2013-07-02 06:53:00,76.9,59.0,29.76,NNE,17,2.3,2.3,54,0.00,CLR,SCT,0.00,39.0,WeatherDisplay:10.37,2013-07-02 13:53:00,
2013-07-02 06:58:00,77.1,59.2,29.76,NNE,17,2.3,2.3,54,0.00,CLR,SCT,0.00,40.0,WeatherDisplay:10.37,2013-07-02 13:58:00,
2013-07-02 07:06:00,77.8,58.8,29.76,NNE,12,2.3,2.3,52,0.00,CLR,SCT,0.00,42.0,WeatherDisplay:10.37,2013-07-02 14:06:00,
2013-07-02 07:11:00,77.8,59.3,29.76,NNE,12,2.3,2.3,53,0.00,CLR,SCT,0.00,44.0,WeatherDisplay:10.37,2013-07-02 14:11:00,
2013-07-02 07:16:00,78.0,59.5,29.76,NNE,12,2.3,2.3,53,0.00,CLR,SCT,0.00,46.0,WeatherDisplay:10.37,2013-07-02 14:16:00,
2013-07-02 07:21:00,78.0,60.5,29.76,NNE,12,2.0,2.0,55,0.00,CLR,SCT,0.00,49.0,WeatherDisplay:10.37,2013-07-02 14:21:00,
2013-07-02 07:26:00,78.1,60.6,29.76,NNE,13,2.3,2.3,55,0.00,CLR,SCT,0.00,53.0,WeatherDisplay:10.37,2013-07-02 14:26:00,
2013-07-02 07:31:00,78.1,62.1,29.76,NNE,13,1.2,1.2,58,0.00,BKN,SCT,0.00,56.0,WeatherDisplay:10.37,2013-07-02 14:31:00,
2013-07-02 07:36:00,78.1,62.1,29.76,North,11,2.3,2.3,58,0.00,BKN,SCT,0.00,60.0,WeatherDisplay:10.37,2013-07-02 14:36:00,
2013-07-02 07:41:00,78.7,61.7,29.76,NE,36,4.6,4.6,56,0.00,BKN,SCT,0.00,65.0,WeatherDisplay:10.37,2013-07-02 14:41:00,
2013-07-02 07:46:00,79.3,62.7,29.76,NNE,30,2.0,2.0,57,0.00,CLR,SCT,0.00,72.0,WeatherDisplay:10.37,2013-07-02 14:46:00,
2013-07-02 07:51:00,79.8,63.7,29.76,NNE,20,1.2,1.2,58,0.00,CLR,SCT,0.00,237.0,WeatherDisplay:10.37,2013-07-02 14:51:00,
2013-07-02 07:56:00,80.0,63.4,29.76,North,360,3.5,3.5,57,0.00,CLR,SCT,0.00,251.0,WeatherDisplay:10.37,2013-07-02 14:56:00,
2013-07-02 08:01:00,80.8,63.1,29.76,ENE,64,3.5,3.5,55,0.00,CLR,SCT,0.00,267.0,WeatherDisplay:10.37,2013-07-02 15:01:00,
2013-07-02 08:06:00,81.3,63.6,29.76,NE,37,2.0,2.0,55,0.00,CLR,SCT,0.00,281.0,WeatherDisplay:10.37,2013-07-02 15:06:00,
2013-07-02 08:11:00,81.6,63.9,29.76,North,355,2.3,2.3,55,0.00,CLR,SCT,0.00,295.0,WeatherDisplay:10.37,2013-07-02 15:11:00,
2013-07-02 08:16:00,82.1,63.8,29.76,North,355,1.2,1.2,54,0.00,CLR,SCT,0.00,311.0,WeatherDisplay:10.37,2013-07-02 15:16:00,
2013-07-02 08:21:00,82.5,64.7,29.76,North,355,1.2,1.2,55,0.00,CLR,SCT,0.00,325.0,WeatherDisplay:10.37,2013-07-02 15:21:00,
2013-07-02 08:27:00,83.5,64.6,29.76,NE,42,3.5,3.5,53,0.00,CLR,SCT,0.00,339.0,WeatherDisplay:10.37,2013-07-02 15:27:00,
2013-07-02 08:32:00,84.1,64.0,29.76,NE,39,2.3,2.3,51,0.00,CLR,SCT,0.00,359.0,WeatherDisplay:10.37,2013-07-02 15:32:00,
2013-07-02 08:37:00,84.9,65.3,29.77,NE,40,2.3,2.3,52,0.00,CLR,SCT,0.00,355.0,WeatherDisplay:10.37,2013-07-02 15:37:00,
2013-07-02 08:42:00,85.6,66.0,29.77,NE,46,1.0,1.0,52,0.00,CLR,SCT,0.00,369.0,WeatherDisplay:10.37,2013-07-02 15:42:00,
2013-07-02 08:47:00,85.8,66.1,29.77,NE,44,2.3,2.3,52,0.00,BKN,SCT,0.00,404.0,WeatherDisplay:10.37,2013-07-02 15:47:00,
2013-07-02 08:52:00,86.6,66.3,29.77,NE,36,2.0,2.0,51,0.00,BKN,SCT,0.00,417.0,WeatherDisplay:10.37,2013-07-02 15:52:00,
2013-07-02 08:57:00,87.7,66.2,29.77,ENE,69,0.0,0.3,49,0.00,BKN,SCT,0.00,411.0,WeatherDisplay:10.37,2013-07-02 15:57:00,
2013-07-02 09:02:00,87.4,65.9,29.77,NNE,17,3.5,3.5,49,0.00,BKN,SCT,0.00,345.0,WeatherDisplay:10.37,2013-07-02 16:02:00,
2013-07-02 09:07:00,87.8,66.3,29.77,NNE,17,1.2,0.0,49,0.00,BKN,SCT,0.00,237.0,WeatherDisplay:10.37,2013-07-02 16:07:00,
2013-07-02 09:12:00,88.1,66.5,29.77,NNE,17,0.0,0.0,49,0.00,BKN,SCT,0.00,332.0,WeatherDisplay:10.37,2013-07-02 16:12:00,
2013-07-02 09:17:00,88.4,68.0,29.77,NNE,17,0.0,0.0,51,0.00,BKN,SCT,0.00,218.0,WeatherDisplay:10.37,2013-07-02 16:17:00,
2013-07-02 09:22:00,87.1,67.9,29.77,NNE,17,1.2,0.0,53,0.00,BKN,SCT,0.00,415.0,WeatherDisplay:10.37,2013-07-02 16:22:00,
2013-07-02 09:27:00,87.3,69.2,29.77,NNE,17,1.2,0.0,55,0.00,BKN,SCT,0.00,457.0,WeatherDisplay:10.37,2013-07-02 16:27:00,
2013-07-02 09:32:00,88.6,69.8,29.77,NNE,17,0.0,0.0,54,0.00,BKN,SCT,0.00,427.0,WeatherDisplay:10.37,2013-07-02 16:32:00,
2013-07-02 09:37:00,89.0,70.7,29.77,NNE,17,0.0,0.0,55,0.00,BKN,SCT,0.00,464.0,WeatherDisplay:10.37,2013-07-02 16:37:00,
2013-07-02 09:42:00,90.0,70.6,29.77,NNE,17,1.2,0.0,53,0.00,BKN,SCT,0.00,499.0,WeatherDisplay:10.37,2013-07-02 16:42:00,
2013-07-02 09:47:00,91.5,70.8,29.77,NNE,17,0.0,0.0,51,0.00,BKN,SCT,0.00,501.0,WeatherDisplay:10.37,2013-07-02 16:47:00,
2013-07-02 09:52:00,92.1,67.1,29.78,SE,128,1.2,0.0,44,0.00,BKN,SCT,0.00,520.0,WeatherDisplay:10.37,2013-07-02 16:52:00,
2013-07-02 09:57:00,93.2,66.0,29.78,South,170,0.0,0.0,41,0.00,BKN,SCT,0.00,534.0,WeatherDisplay:10.37,2013-07-02 16:57:00,
2013-07-02 10:02:00,93.5,67.6,29.78,South,170,1.2,0.0,43,0.00,BKN,SCT,0.00,510.0,WeatherDisplay:10.37,2013-07-02 17:02:00,
2013-07-02 10:07:00,93.1,70.5,29.78,South,170,0.0,0.0,48,0.00,BKN,SCT,0.00,547.0,WeatherDisplay:10.37,2013-07-02 17:07:00,
2013-07-02 10:12:00,93.5,70.9,29.78,South,179,0.0,0.0,48,0.00,BKN,SCT,0.00,585.0,WeatherDisplay:10.37,2013-07-02 17:12:00,
2013-07-02 10:17:00,94.2,68.9,29.78,South,179,1.2,1.2,44,0.00,BKN,SCT,0.00,647.0,WeatherDisplay:10.37,2013-07-02 17:17:00,
2013-07-02 10:22:00,95.1,67.7,29.78,South,178,2.3,2.3,41,0.00,BKN,SCT,0.00,647.0,WeatherDisplay:10.37,2013-07-02 17:22:00,
2013-07-02 10:27:00,95.1,68.4,29.78,South,178,1.2,1.2,42,0.00,BKN,SCT,0.00,642.0,WeatherDisplay:10.37,2013-07-02 17:27:00,
2013-07-02 10:32:00,95.2,68.5,29.78,SW,214,3.5,3.5,42,0.00,BKN,SCT,0.00,671.0,WeatherDisplay:10.37,2013-07-02 17:32:00,
2013-07-02 10:37:00,94.9,67.5,29.79,SW,214,1.2,1.2,41,0.00,BKN,SCT,0.00,696.0,WeatherDisplay:10.37,2013-07-02 17:37:00,
2013-07-02 10:42:00,94.6,67.3,29.79,SSW,209,2.3,0.0,41,0.00,BKN,SCT,0.00,703.0,WeatherDisplay:10.37,2013-07-02 17:42:00,
2013-07-02 10:47:00,94.4,67.1,29.79,South,177,1.2,1.2,41,0.00,BKN,SCT,0.00,715.0,WeatherDisplay:10.37,2013-07-02 17:47:00,
2013-07-02 10:52:00,94.0,66.7,29.79,South,177,2.0,2.0,41,0.00,BKN,SCT,0.00,645.0,WeatherDisplay:10.37,2013-07-02 17:52:00,
2013-07-02 10:57:00,93.6,67.1,29.79,South,176,2.3,2.3,42,0.00,BKN,SCT,0.00,747.0,WeatherDisplay:10.37,2013-07-02 17:57:00,
2013-07-02 11:02:00,93.3,68.1,29.79,SSW,202,2.3,2.3,44,0.00,BKN,SCT,0.00,747.0,WeatherDisplay:10.37,2013-07-02 18:02:00,
2013-07-02 11:07:00,93.7,67.1,29.79,SSW,197,1.2,1.2,42,0.00,BKN,SCT,0.00,629.0,WeatherDisplay:10.37,2013-07-02 18:07:00,
2013-07-02 11:12:00,94.6,68.6,29.79,SSW,197,1.2,1.2,43,0.00,BKN,SCT,0.00,747.0,WeatherDisplay:10.37,2013-07-02 18:12:00,
2013-07-02 11:17:00,95.0,68.3,29.79,SSW,197,0.0,0.0,42,0.00,BKN,SCT,0.00,756.0,WeatherDisplay:10.37,2013-07-02 18:17:00,
2013-07-02 11:22:00,95.3,67.9,29.79,South,182,2.3,2.3,41,0.00,BKN,SCT,0.00,763.0,WeatherDisplay:10.37,2013-07-02 18:22:00,
2013-07-02 11:27:00,96.0,68.5,29.80,South,182,0.0,0.0,41,0.00,BKN,SCT,0.00,775.0,WeatherDisplay:10.37,2013-07-02 18:27:00,
2013-07-02 11:32:00,96.3,68.1,29.80,South,178,1.2,0.0,40,0.00,BKN,SCT,0.00,786.0,WeatherDisplay:10.37,2013-07-02 18:32:00,
2013-07-02 11:37:00,96.3,65.8,29.80,South,189,1.2,1.2,37,0.00,BKN,SCT,0.00,796.0,WeatherDisplay:10.37,2013-07-02 18:37:00,
2013-07-02 11:42:00,96.3,67.3,29.80,SSE,158,2.3,2.3,39,0.00,BKN,SCT,0.00,800.0,WeatherDisplay:10.37,2013-07-02 18:42:00,
2013-07-02 11:47:00,96.3,65.8,29.80,South,174,1.2,1.2,37,0.00,BKN,SCT,0.00,805.0,WeatherDisplay:10.37,2013-07-02 18:47:00,
2013-07-02 11:52:00,96.9,69.3,29.80,South,173,0.0,0.0,41,0.00,BKN,SCT,0.00,817.0,WeatherDisplay:10.37,2013-07-02 18:52:00,
2013-07-02 11:57:00,97.9,68.7,29.80,South,175,0.0,0.0,39,0.00,BKN,SCT,0.00,823.0,WeatherDisplay:10.37,2013-07-02 18:57:00,
2013-07-02 12:02:00,97.9,68.0,29.80,South,175,1.2,1.2,38,0.00,BKN,SCT,0.00,828.0,WeatherDisplay:10.37,2013-07-02 19:02:00,
2013-07-02 12:07:00,98.0,67.3,29.80,South,175,3.5,3.5,37,0.00,BKN,SCT,0.00,833.0,WeatherDisplay:10.37,2013-07-02 19:07:00,
2013-07-02 12:12:00,98.3,67.6,29.80,SSE,165,3.5,3.5,37,0.00,BKN,SCT,0.00,837.0,WeatherDisplay:10.37,2013-07-02 19:12:00,
2013-07-02 12:17:00,98.7,68.7,29.80,SSE,166,2.3,0.0,38,0.00,BKN,SCT,0.00,749.0,WeatherDisplay:10.37,2013-07-02 19:17:00,
2013-07-02 12:22:00,98.9,69.6,29.80,NE,51,1.2,0.0,39,0.00,BKN,SCT,0.00,612.0,WeatherDisplay:10.37,2013-07-02 19:22:00,
2013-07-02 12:27:00,99.0,69.0,29.80,South,170,3.5,3.5,38,0.00,BKN,SCT,0.00,877.0,WeatherDisplay:10.37,2013-07-02 19:27:00,
2013-07-02 12:32:00,99.1,70.5,29.80,South,171,0.0,0.0,40,0.00,BKN,SCT,0.00,694.0,WeatherDisplay:10.37,2013-07-02 19:32:00,
2013-07-02 12:37:00,98.8,69.5,29.80,SSW,199,2.3,2.3,39,0.00,BKN,SCT,0.00,1081.0,WeatherDisplay:10.37,2013-07-02 19:37:00,
2013-07-02 12:42:00,99.6,70.2,29.80,WNW,284,1.2,1.2,39,0.00,BKN,SCT,0.00,865.0,WeatherDisplay:10.37,2013-07-02 19:42:00,
2013-07-02 12:47:00,99.7,70.3,29.80,SSW,193,2.3,2.3,39,0.00,BKN,SCT,0.00,589.0,WeatherDisplay:10.37,2013-07-02 19:47:00,
2013-07-02 12:52:00,99.7,69.6,29.81,SSW,193,1.2,1.2,38,0.00,BKN,SCT,0.00,1046.0,WeatherDisplay:10.37,2013-07-02 19:52:00,
2013-07-02 12:57:00,99.3,70.7,29.80,SSW,193,2.3,2.3,40,0.00,BKN,SCT,0.00,527.0,WeatherDisplay:10.37,2013-07-02 19:57:00,
2013-07-02 13:02:00,99.1,71.3,29.80,South,184,1.2,1.2,41,0.00,BKN,SCT,0.00,656.0,WeatherDisplay:10.37,2013-07-02 20:02:00,
2013-07-02 13:07:00,99.0,71.2,29.80,SE,146,0.0,0.1,41,0.00,BKN,SCT,0.00,552.0,WeatherDisplay:10.37,2013-07-02 20:07:00,
2013-07-02 13:08:00,99.0,71.2,29.80,SE,146,0.0,0.1,41,0.00,BKN,SCT,0.00,552.0,WeatherDisplay:10.37,2013-07-02 20:08:00,
2013-07-02 13:13:00,98.5,69.3,29.80,SSE,167,1.2,1.2,39,0.00,BKN,SCT,0.00,661.0,WeatherDisplay:10.37,2013-07-02 20:13:00,
2013-07-02 13:18:00,98.8,71.0,29.80,SSE,167,2.3,2.3,41,0.00,BKN,SCT,0.00,663.0,WeatherDisplay:10.37,2013-07-02 20:18:00,
2013-07-02 13:23:00,98.3,67.6,29.80,SE,128,1.2,1.2,37,0.00,BKN,SCT,0.00,445.0,WeatherDisplay:10.37,2013-07-02 20:23:00,
2013-07-02 13:28:00,97.4,69.0,29.80,SSE,161,1.2,1.2,40,0.00,BKN,SCT,0.00,457.0,WeatherDisplay:10.37,2013-07-02 20:28:00,
2013-07-02 13:33:00,97.5,69.1,29.80,SSE,156,1.2,1.2,40,0.00,BKN,SCT,0.00,527.0,WeatherDisplay:10.37,2013-07-02 20:33:00,
2013-07-02 13:38:00,97.8,70.8,29.80,SSE,155,1.2,1.2,42,0.00,BKN,SCT,0.00,654.0,WeatherDisplay:10.37,2013-07-02 20:38:00,
2013-07-02 13:43:00,97.8,69.4,29.80,SSE,168,0.0,0.0,40,0.00,BKN,SCT,0.00,543.0,WeatherDisplay:10.37,2013-07-02 20:43:00,
2013-07-02 13:48:00,97.5,69.8,29.80,SE,144,0.0,0.1,41,0.00,BKN,SCT,0.00,606.0,WeatherDisplay:10.37,2013-07-02 20:48:00,
2013-07-02 13:53:00,97.7,67.0,29.80,ESE,113,2.3,0.0,37,0.00,BKN,SCT,0.00,599.0,WeatherDisplay:10.37,2013-07-02 20:53:00,
2013-07-02 13:58:00,98.1,70.4,29.79,South,175,1.2,1.2,41,0.00,BKN,SCT,0.00,868.0,WeatherDisplay:10.37,2013-07-02 20:58:00,
2013-07-02 14:03:00,100.2,70.8,29.79,SSW,211,1.2,1.2,39,0.00,BKN,SCT,0.00,856.0,WeatherDisplay:10.37,2013-07-02 21:03:00,
2013-07-02 14:08:00,100.6,71.9,29.79,SW,234,0.0,0.0,40,0.00,BKN,SCT,0.00,835.0,WeatherDisplay:10.37,2013-07-02 21:08:00,
2013-07-02 14:13:00,100.4,68.6,29.79,SSW,211,2.3,2.3,36,0.00,BKN,SCT,0.00,833.0,WeatherDisplay:10.37,2013-07-02 21:13:00,
2013-07-02 14:18:00,101.2,71.7,29.79,SSW,211,0.0,0.0,39,0.00,BKN,SCT,0.00,824.0,WeatherDisplay:10.37,2013-07-02 21:18:00,
2013-07-02 14:23:00,101.8,71.4,29.78,SSW,202,1.0,1.0,38,0.00,BKN,SCT,0.00,821.0,WeatherDisplay:10.37,2013-07-02 21:23:00,
2013-07-02 14:28:00,102.8,73.1,29.78,SSW,202,0.0,0.0,39,0.00,BKN,SCT,0.00,812.0,WeatherDisplay:10.37,2013-07-02 21:28:00,
2013-07-02 14:33:00,103.1,71.8,29.78,SSW,202,0.0,0.0,37,0.00,BKN,SCT,0.00,807.0,WeatherDisplay:10.37,2013-07-02 21:33:00,
2013-07-02 14:38:00,102.7,70.6,29.78,South,187,2.0,2.0,36,0.00,BKN,SCT,0.00,800.0,WeatherDisplay:10.37,2013-07-02 21:38:00,
2013-07-02 14:43:00,101.9,69.1,29.78,East,99,0.0,0.0,35,0.00,BKN,SCT,0.00,795.0,WeatherDisplay:10.37,2013-07-02 21:43:00,
2013-07-02 14:48:00,102.5,70.5,29.78,South,189,1.2,1.2,36,0.00,BKN,SCT,0.00,782.0,WeatherDisplay:10.37,2013-07-02 21:48:00,
2013-07-02 14:53:00,102.4,69.5,29.78,SSE,148,1.2,1.2,35,0.00,BKN,SCT,0.00,775.0,WeatherDisplay:10.37,2013-07-02 21:53:00,
2013-07-02 14:58:00,102.3,71.1,29.78,South,175,1.2,0.0,37,0.00,BKN,SCT,0.00,765.0,WeatherDisplay:10.37,2013-07-02 21:58:00,
2013-07-02 15:03:00,102.7,71.4,29.78,South,175,1.2,0.0,37,0.00,BKN,SCT,0.00,754.0,WeatherDisplay:10.37,2013-07-02 22:03:00,
2013-07-02 15:08:00,102.8,71.5,29.78,South,174,0.0,0.0,37,0.00,BKN,SCT,0.00,747.0,WeatherDisplay:10.37,2013-07-02 22:08:00,
2013-07-02 15:13:00,102.5,71.3,29.78,SSW,202,2.3,2.3,37,0.00,BKN,SCT,0.00,742.0,WeatherDisplay:10.37,2013-07-02 22:13:00,
2013-07-02 15:18:00,101.4,69.5,29.78,SSW,199,3.5,3.5,36,0.00,BKN,SCT,0.00,728.0,WeatherDisplay:10.37,2013-07-02 22:18:00,
2013-07-02 15:23:00,100.6,70.4,29.78,SSE,167,2.3,2.3,38,0.00,BKN,SCT,0.00,717.0,WeatherDisplay:10.37,2013-07-02 22:23:00,
2013-07-02 15:28:00,100.6,70.4,29.78,South,180,0.0,0.0,38,0.00,BKN,SCT,0.00,677.0,WeatherDisplay:10.37,2013-07-02 22:28:00,
2013-07-02 15:33:00,100.3,69.3,29.78,South,189,1.2,1.2,37,0.00,SCT,,0.00,169.0,WeatherDisplay:10.37,2013-07-02 22:33:00,
2013-07-02 15:38:00,99.8,68.9,29.78,South,188,1.2,1.2,37,0.00,SCT,,0.00,188.0,WeatherDisplay:10.37,2013-07-02 22:38:00,
2013-07-02 15:43:00,98.8,68.8,29.78,South,188,0.0,0.0,38,0.00,SCT,,0.00,174.0,WeatherDisplay:10.37,2013-07-02 22:43:00,
2013-07-02 15:48:00,98.3,69.1,29.78,SSE,167,2.3,2.3,39,0.00,SCT,,0.00,132.0,WeatherDisplay:10.37,2013-07-02 22:48:00,
2013-07-02 15:53:00,97.9,69.5,29.77,SSE,168,1.2,0.0,40,0.00,SCT,,0.00,100.0,WeatherDisplay:10.37,2013-07-02 22:53:00,
2013-07-02 15:58:00,97.5,69.8,29.77,SSW,200,1.2,1.2,41,0.00,SCT,,0.00,118.0,WeatherDisplay:10.37,2013-07-02 22:58:00,
2013-07-02 16:03:00,97.2,68.1,29.78,SW,229,2.3,2.3,39,0.00,SCT,,0.00,107.0,WeatherDisplay:10.37,2013-07-02 23:03:00,
2013-07-02 16:08:00,96.5,68.9,29.78,SSW,209,2.3,2.3,41,0.00,SCT,,0.00,104.0,WeatherDisplay:10.37,2013-07-02 23:08:00,
2013-07-02 16:13:00,96.5,68.9,29.78,SSW,205,1.2,1.2,41,0.00,SCT,,0.00,104.0,WeatherDisplay:10.37,2013-07-02 23:13:00,
2013-07-02 16:18:00,96.1,67.1,29.78,SSW,203,2.3,0.0,39,0.00,SCT,,0.00,91.0,WeatherDisplay:10.37,2013-07-02 23:18:00,
2013-07-02 16:23:00,95.9,67.7,29.78,SSW,204,1.2,1.2,40,0.00,SCT,,0.00,91.0,WeatherDisplay:10.37,2013-07-02 23:23:00,
2013-07-02 16:28:00,95.7,68.2,29.78,South,169,1.2,1.2,41,0.00,SCT,,0.00,104.0,WeatherDisplay:10.37,2013-07-02 23:28:00,
2013-07-02 16:29:00,95.7,68.2,29.78,South,169,1.2,1.2,41,0.00,SCT,,0.00,104.0,WeatherDisplay:10.37,2013-07-02 23:29:00,
2013-07-02 16:34:00,95.7,67.5,29.78,SSW,210,1.2,1.2,40,0.00,SCT,,0.00,100.0,WeatherDisplay:10.37,2013-07-02 23:34:00,
2013-07-02 16:39:00,95.7,67.5,29.78,SSW,210,1.2,1.2,40,0.00,SCT,,0.00,84.0,WeatherDisplay:10.37,2013-07-02 23:39:00,
2013-07-02 16:44:00,96.3,68.1,29.78,South,173,1.2,1.2,40,0.00,SCT,,0.00,88.0,WeatherDisplay:10.37,2013-07-02 23:44:00,
2013-07-02 16:49:00,96.2,68.7,29.78,South,173,0.0,0.0,41,0.00,SCT,,0.00,90.0,WeatherDisplay:10.37,2013-07-02 23:49:00,
2013-07-02 16:54:00,95.8,68.3,29.78,South,182,2.0,2.0,41,0.00,SCT,,0.00,97.0,WeatherDisplay:10.37,2013-07-02 23:54:00,
2013-07-02 16:59:00,95.8,67.6,29.78,South,177,2.3,2.3,40,0.00,SCT,,0.00,123.0,WeatherDisplay:10.37,2013-07-02 23:59:00,
2013-07-02 17:01:00,96.0,67.0,29.78,South,179,1.2,1.2,39,0.00,SCT,,0.00,120.0,WeatherDisplay:10.37,2013-07-03 00:01:00,
2013-07-02 17:06:00,95.7,66.8,29.78,SSW,194,0.0,0.0,39,0.00,SCT,,0.00,98.0,WeatherDisplay:10.37,2013-07-03 00:06:00,
2013-07-02 17:11:00,95.2,67.1,29.78,SSW,194,0.0,0.0,40,0.00,SCT,,0.00,105.0,WeatherDisplay:10.37,2013-07-03 00:11:00,
2013-07-02 17:16:00,95.2,65.6,29.77,South,181,2.3,0.0,38,0.00,SCT,,0.00,91.0,WeatherDisplay:10.37,2013-07-03 00:16:00,
2013-07-02 17:21:00,95.1,66.2,29.78,SSW,194,2.3,2.3,39,0.00,SCT,,0.00,90.0,WeatherDisplay:10.37,2013-07-03 00:21:00,
2013-07-02 17:23:00,95.2,66.3,29.78,SSW,194,1.0,1.0,39,0.00,SCT,,0.00,88.0,WeatherDisplay:10.37,2013-07-03 00:23:00,
2013-07-02 17:24:00,95.2,66.3,29.78,SSW,194,1.2,1.2,39,0.00,SCT,,0.00,86.0,WeatherDisplay:10.37,2013-07-03 00:24:00,
2013-07-02 17:28:00,95.7,66.0,29.78,South,169,1.2,1.2,38,0.00,SCT,,0.00,86.0,WeatherDisplay:10.37,2013-07-03 00:28:00,
2013-07-02 17:33:00,95.7,66.0,29.78,SSW,198,2.0,2.0,38,0.00,SCT,,0.00,88.0,WeatherDisplay:10.37,2013-07-03 00:33:00,
2013-07-02 17:38:00,95.6,66.7,29.78,SSW,205,0.0,0.1,39,0.00,SCT,,0.00,88.0,WeatherDisplay:10.37,2013-07-03 00:38:00,
2013-07-02 17:43:00,95.3,64.9,29.78,WSW,246,2.3,2.3,37,0.00,SCT,,0.00,83.0,WeatherDisplay:10.37,2013-07-03 00:43:00,
2013-07-02 17:48:00,95.1,65.5,29.79,SW,227,2.0,2.0,38,0.00,SCT,,0.00,84.0,WeatherDisplay:10.37,2013-07-03 00:48:00,
2013-07-02 17:53:00,95.4,64.2,29.79,SSW,199,3.5,3.5,36,0.00,SCT,,0.00,84.0,WeatherDisplay:10.37,2013-07-03 00:53:00,
2013-07-02 17:58:00,95.2,65.6,29.79,SSW,205,2.3,2.3,38,0.00,SCT,,0.00,83.0,WeatherDisplay:10.37,2013-07-03 00:58:00,
2013-07-02 18:00:00,95.0,66.2,29.79,SSW,198,0.0,2.0,39,0.00,SCT,SCT,0.00,81.0,WeatherDisplay:10.37,2013-07-03 01:00:00,
2013-07-02 18:03:00,95.1,64.7,29.80,SSW,207,1.2,1.2,37,0.00,SCT,,0.00,88.0,WeatherDisplay:10.37,2013-07-03 01:03:00,
2013-07-02 18:08:00,94.8,64.5,29.80,SSW,212,1.2,1.2,37,0.00,SCT,,0.00,109.0,WeatherDisplay:10.37,2013-07-03 01:08:00,
2013-07-02 18:09:00,95.0,64.6,29.80,SSW,212,1.2,1.2,37,0.00,SCT,,0.00,109.0,WeatherDisplay:10.37,2013-07-03 01:09:00,
2013-07-02 18:14:00,95.1,63.9,29.80,South,175,2.3,2.3,36,0.00,SCT,,0.00,141.0,WeatherDisplay:10.37,2013-07-03 01:14:00,
2013-07-02 18:19:00,95.3,64.1,29.80,South,175,1.2,1.2,36,0.00,SCT,,0.00,116.0,WeatherDisplay:10.37,2013-07-03 01:19:00,
2013-07-02 18:24:00,94.9,63.8,29.80,SSE,168,1.2,1.2,36,0.00,SCT,,0.00,102.0,WeatherDisplay:10.37,2013-07-03 01:24:00,
2013-07-02 18:26:00,94.8,65.2,29.80,SW,219,1.2,1.2,38,0.00,SCT,,0.00,93.0,WeatherDisplay:10.37,2013-07-03 01:26:00,
2013-07-02 18:31:00,94.6,64.3,29.81,SW,219,0.0,0.0,37,0.00,BKN,SCT,0.00,70.0,WeatherDisplay:10.37,2013-07-03 01:31:00,
2013-07-02 18:36:00,94.6,64.3,29.81,NW,323,0.0,0.0,37,0.00,BKN,SCT,0.00,70.0,WeatherDisplay:10.37,2013-07-03 01:36:00,
2013-07-02 18:41:00,94.3,64.8,29.81,NW,322,1.2,1.2,38,0.00,BKN,SCT,0.00,72.0,WeatherDisplay:10.37,2013-07-03 01:41:00,
2013-07-02 18:46:00,93.9,65.2,29.81,NW,322,1.0,0.0,39,0.00,BKN,SCT,0.00,72.0,WeatherDisplay:10.37,2013-07-03 01:46:00,
2013-07-02 18:49:00,93.5,65.6,29.81,NW,322,0.0,0.0,40,0.00,BKN,SCT,0.00,74.0,WeatherDisplay:10.37,2013-07-03 01:49:00,
2013-07-02 18:50:00,93.3,66.1,29.81,NW,322,1.2,0.0,41,0.00,BKN,SCT,0.00,76.0,WeatherDisplay:10.37,2013-07-03 01:50:00,
2013-07-02 18:56:00,93.3,66.1,29.81,ESE,115,1.2,0.0,41,0.00,BKN,SCT,0.00,74.0,WeatherDisplay:10.37,2013-07-03 01:56:00,
2013-07-02 19:01:00,93.3,65.4,29.81,ESE,115,0.0,0.0,40,0.00,BKN,SCT,0.00,70.0,WeatherDisplay:10.37,2013-07-03 02:01:00,
2013-07-02 19:06:00,93.1,66.6,29.81,SSW,193,2.0,2.0,42,0.00,BKN,SCT,0.00,62.0,WeatherDisplay:10.37,2013-07-03 02:06:00,
2013-07-02 19:11:00,93.0,66.5,29.81,WSW,249,3.5,3.5,42,0.00,BKN,SCT,0.00,53.0,WeatherDisplay:10.37,2013-07-03 02:11:00,
2013-07-02 19:17:00,93.0,64.4,29.81,SE,130,3.5,3.5,39,0.00,BKN,SCT,0.00,49.0,WeatherDisplay:10.37,2013-07-03 02:17:00,
2013-07-02 19:22:00,93.2,62.3,29.81,NNE,24,4.6,4.6,36,0.00,BKN,SCT,0.00,46.0,WeatherDisplay:10.37,2013-07-03 02:22:00,
2013-07-02 19:27:00,93.0,62.1,29.80,SSE,166,0.0,0.0,36,0.00,BKN,SCT,0.00,42.0,WeatherDisplay:10.37,2013-07-03 02:27:00,
2013-07-02 19:33:00,92.5,62.4,29.80,South,175,1.2,1.2,37,0.00,BKN,SCT,0.00,33.0,WeatherDisplay:10.37,2013-07-03 02:33:00,
2013-07-02 19:39:00,92.1,62.8,29.80,ESE,118,1.2,1.2,38,0.00,BKN,SCT,0.00,28.0,WeatherDisplay:10.37,2013-07-03 02:39:00,
2013-07-02 19:44:00,91.5,60.8,29.80,SSE,157,5.8,5.8,36,0.00,BKN,SCT,0.00,26.0,WeatherDisplay:10.37,2013-07-03 02:44:00,
2013-07-02 19:46:00,91.5,60.8,29.80,SSE,155,0.0,0.0,36,0.00,BKN,SCT,0.00,26.0,WeatherDisplay:10.37,2013-07-03 02:46:00,
2013-07-02 19:51:00,91.3,61.4,29.80,NNW,332,1.2,1.2,37,0.00,BKN,SCT,0.00,23.0,WeatherDisplay:10.37,2013-07-03 02:51:00,
2013-07-02 19:56:00,90.7,62.3,29.80,NNW,332,0.0,0.0,39,0.00,BKN,SCT,0.00,19.0,WeatherDisplay:10.37,2013-07-03 02:56:00,
2013-07-02 20:01:00,90.2,61.9,29.80,North,360,1.0,1.9,39,0.00,BKN,SCT,0.00,18.0,WeatherDisplay:10.37,2013-07-03 03:01:00,
2013-07-02 20:04:00,90.3,60.5,29.80,ESE,109,6.9,6.9,37,0.00,BKN,SCT,0.00,18.0,WeatherDisplay:10.37,2013-07-03 03:04:00,
2013-07-02 20:09:00,90.3,60.5,29.80,NNE,22,3.5,3.5,37,0.00,BKN,SCT,0.00,16.0,WeatherDisplay:10.37,2013-07-03 03:09:00,
2013-07-02 20:14:00,90.1,59.5,29.80,NE,38,2.3,2.3,36,0.00,BKN,SCT,0.00,14.0,WeatherDisplay:10.37,2013-07-03 03:14:00,
2013-07-02 20:19:00,90.2,58.8,29.79,NNE,15,3.5,3.5,35,0.00,BKN,SCT,0.00,12.0,WeatherDisplay:10.37,2013-07-03 03:19:00,
2013-07-02 20:20:00,90.2,58.8,29.80,NE,34,3.5,3.5,35,0.00,BKN,SCT,0.00,11.0,WeatherDisplay:10.37,2013-07-03 03:20:00,
2013-07-02 20:25:00,90.1,58.8,29.80,NNE,20,4.0,4.0,35,0.00,BKN,SCT,0.00,7.0,WeatherDisplay:10.37,2013-07-03 03:25:00,
2013-07-02 20:31:00,90.0,58.7,29.80,SE,136,1.2,1.2,35,0.00,CLR,SCT,0.00,0.0,WeatherDisplay:10.37,2013-07-03 03:31:00,
2013-07-02 20:35:00,89.7,59.2,29.80,East,91,0.0,0.0,36,0.00,CLR,SCT,0.00,0.0,WeatherDisplay:10.37,2013-07-03 03:35:00,
2013-07-02 20:39:00,89.1,60.9,29.80,East,91,0.0,0.0,39,0.00,CLR,SCT,0.00,0.0,WeatherDisplay:10.37,2013-07-03 03:39:00,
2013-07-02 20:44:00,88.4,59.6,29.80,SW,231,1.2,1.2,38,0.00,CLR,SCT,0.00,0.0,WeatherDisplay:10.37,2013-07-03 03:44:00,
2013-07-02 20:49:00,88.2,60.1,29.80,SW,236,2.3,2.3,39,0.00,CLR,SCT,0.00,0.0,WeatherDisplay:10.37,2013-07-03 03:49:00,
2013-07-02 20:55:00,88.0,60.0,29.79,SW,236,0.0,2.0,39,0.00,CLR,SCT,0.00,0.0,WeatherDisplay:10.37,2013-07-03 03:55:00,
2013-07-02 21:00:00,87.9,59.8,29.79,SSW,207,0.0,3.0,39,0.00,CLR,SCT,0.00,0.0,WeatherDisplay:10.37,2013-07-03 04:00:00,
2013-07-02 21:01:00,87.8,59.8,29.79,SSW,202,0.0,0.0,39,0.00,CLR,SCT,0.00,0.0,WeatherDisplay:10.37,2013-07-03 04:01:00,
2013-07-02 21:03:00,87.5,60.2,29.80,SSW,202,0.0,0.0,40,0.00,CLR,SCT,0.00,0.0,WeatherDisplay:10.37,2013-07-03 04:03:00,
2013-07-02 21:04:00,87.5,61.6,29.79,SSW,202,0.0,0.0,42,0.00,CLR,SCT,0.00,0.0,WeatherDisplay:10.37,2013-07-03 04:04:00,
2013-07-02 21:09:00,88.0,58.5,29.79,South,178,0.0,1.9,37,0.00,CLR,SCT,0.00,0.0,WeatherDisplay:10.37,2013-07-03 04:09:00,
2013-07-02 21:14:00,89.0,57.8,29.79,NE,44,6.9,6.9,35,0.00,CLR,SCT,0.00,0.0,WeatherDisplay:10.37,2013-07-03 04:14:00,
2013-07-02 21:19:00,88.8,59.2,29.79,NNW,347,1.2,1.2,37,0.00,CLR,SCT,0.00,0.0,WeatherDisplay:10.37,2013-07-03 04:19:00,
2013-07-02 21:24:00,88.1,58.6,29.79,ENE,76,3.5,3.5,37,0.00,CLR,SCT,0.00,0.0,WeatherDisplay:10.37,2013-07-03 04:24:00,
2013-07-02 21:29:00,88.1,58.6,29.80,ENE,65,0.0,0.0,37,0.00,CLR,SCT,0.00,0.0,WeatherDisplay:10.37,2013-07-03 04:29:00,
2013-07-02 21:31:00,87.8,60.5,29.79,ENE,65,0.0,0.1,40,0.00,CLR,SCT,0.00,0.0,WeatherDisplay:10.37,2013-07-03 04:31:00,
2013-07-02 21:32:00,87.6,59.6,29.79,ENE,65,1.2,1.2,39,0.00,CLR,SCT,0.00,0.0,WeatherDisplay:10.37,2013-07-03 04:32:00,
2013-07-02 21:37:00,87.1,58.4,29.80,SE,136,1.2,1.2,38,0.00,CLR,SCT,0.00,0.0,WeatherDisplay:10.37,2013-07-03 04:37:00,
2013-07-02 21:42:00,86.8,61.0,29.80,SE,136,0.0,0.0,42,0.00,CLR,SCT,0.00,0.0,WeatherDisplay:10.37,2013-07-03 04:42:00,
2013-07-02 21:46:00,86.1,61.0,29.80,SE,136,0.0,0.0,43,0.00,CLR,SCT,0.00,0.0,WeatherDisplay:10.37,2013-07-03 04:46:00,
2013-07-02 21:51:00,85.3,61.6,29.80,SE,136,0.0,0.0,45,0.00,CLR,SCT,0.00,0.0,WeatherDisplay:10.37,2013-07-03 04:51:00,
2013-07-02 21:53:00,85.2,61.5,29.80,SE,136,0.0,0.0,45,0.00,CLR,SCT,0.00,0.0,WeatherDisplay:10.37,2013-07-03 04:53:00,
2013-07-02 21:58:00,84.8,61.1,29.81,SE,136,0.0,0.0,45,0.00,CLR,SCT,0.00,0.0,WeatherDisplay:10.37,2013-07-03 04:58:00,
2013-07-02 22:03:00,84.9,60.6,29.81,SE,136,0.0,0.0,44,0.00,CLR,SCT,0.00,0.0,WeatherDisplay:10.37,2013-07-03 05:03:00,
2013-07-02 22:07:00,84.9,60.6,29.81,ESE,103,2.0,2.0,44,0.00,CLR,SCT,0.00,0.0,WeatherDisplay:10.37,2013-07-03 05:07:00,
2013-07-02 22:08:00,84.8,61.1,29.81,ESE,103,2.3,2.3,45,0.00,CLR,SCT,0.00,0.0,WeatherDisplay:10.37,2013-07-03 05:08:00,
2013-07-02 22:13:00,84.5,60.8,29.81,ESE,103,0.0,0.0,45,0.00,CLR,SCT,0.00,0.0,WeatherDisplay:10.37,2013-07-03 05:13:00,
2013-07-02 22:18:00,84.0,61.6,29.81,ESE,103,0.0,0.0,47,0.00,CLR,SCT,0.00,0.0,WeatherDisplay:10.37,2013-07-03 05:18:00,
2013-07-02 22:19:00,83.9,61.5,29.81,ESE,103,0.0,0.0,47,0.00,CLR,SCT,0.00,0.0,WeatherDisplay:10.37,2013-07-03 05:19:00,
2013-07-02 22:24:00,83.6,61.2,29.81,ESE,103,0.0,0.0,47,0.00,CLR,SCT,0.00,0.0,WeatherDisplay:10.37,2013-07-03 05:24:00,
2013-07-02 22:29:00,83.1,61.4,29.81,ESE,103,0.0,0.0,48,0.00,CLR,SCT,0.00,0.0,WeatherDisplay:10.37,2013-07-03 05:29:00,
2013-07-02 22:34:00,82.5,61.4,29.81,ESE,103,0.0,0.0,49,0.00,CLR,SCT,0.00,0.0,WeatherDisplay:10.37,2013-07-03 05:34:00,
2013-07-02 22:40:00,82.2,62.3,29.81,ESE,103,0.0,0.0,51,0.00,CLR,SCT,0.00,0.0,WeatherDisplay:10.37,2013-07-03 05:40:00,
2013-07-02 22:45:00,82.0,61.5,29.81,ESE,103,1.2,0.0,50,0.00,CLR,SCT,0.00,0.0,WeatherDisplay:10.37,2013-07-03 05:45:00,
2013-07-02 22:50:00,81.8,61.4,29.81,ESE,103,0.0,0.0,50,0.00,CLR,SCT,0.00,0.0,WeatherDisplay:10.37,2013-07-03 05:50:00,
2013-07-02 22:55:00,81.4,61.5,29.81,ESE,103,0.0,0.0,51,0.00,CLR,SCT,0.00,0.0,WeatherDisplay:10.37,2013-07-03 05:55:00,
2013-07-02 22:57:00,81.3,61.4,29.81,ESE,103,0.0,0.0,51,0.00,CLR,SCT,0.00,0.0,WeatherDisplay:10.37,2013-07-03 05:57:00,
2013-07-02 22:58:00,81.2,61.9,29.82,ESE,103,0.0,0.0,52,0.00,CLR,SCT,0.00,0.0,WeatherDisplay:10.37,2013-07-03 05:58:00,
2013-07-02 23:02:00,81.0,61.7,29.82,ESE,103,0.0,0.0,52,0.00,CLR,SCT,0.00,0.0,WeatherDisplay:10.37,2013-07-03 06:02:00,
2013-07-02 23:07:00,80.7,62.0,29.82,ESE,103,0.0,0.0,53,0.00,CLR,SCT,0.00,0.0,WeatherDisplay:10.37,2013-07-03 06:07:00,
2013-07-02 23:12:00,80.5,62.3,29.82,ESE,103,0.0,0.0,54,0.00,CLR,SCT,0.00,0.0,WeatherDisplay:10.37,2013-07-03 06:12:00,
2013-07-02 23:14:00,80.4,61.7,29.82,ESE,103,1.0,1.0,53,0.00,CLR,SCT,0.00,0.0,WeatherDisplay:10.37,2013-07-03 06:14:00,
2013-07-02 23:16:00,80.3,62.1,29.82,ESE,103,0.0,0.0,54,0.00,CLR,SCT,0.00,0.0,WeatherDisplay:10.37,2013-07-03 06:16:00,
2013-07-02 23:17:00,80.3,62.1,29.83,ESE,103,0.0,0.0,54,0.00,CLR,SCT,0.00,0.0,WeatherDisplay:10.37,2013-07-03 06:17:00,
2013-07-02 23:22:00,80.0,62.4,29.83,ESE,103,0.0,0.0,55,0.00,CLR,SCT,0.00,0.0,WeatherDisplay:10.37,2013-07-03 06:22:00,
2013-07-02 23:24:00,80.0,61.9,29.83,ESE,103,0.0,0.0,54,0.00,CLR,SCT,0.00,0.0,WeatherDisplay:10.37,2013-07-03 06:24:00,
2013-07-02 23:26:00,79.9,61.8,29.83,ESE,103,0.0,0.0,54,0.00,CLR,SCT,0.00,0.0,WeatherDisplay:10.37,2013-07-03 06:26:00,
2013-07-02 23:31:00,79.7,62.6,29.83,ESE,103,0.0,0.0,56,0.00,CLR,SCT,0.00,0.0,WeatherDisplay:10.37,2013-07-03 06:31:00,
2013-07-02 23:32:00,79.7,62.6,29.83,ESE,103,0.0,0.0,56,0.00,CLR,SCT,0.00,0.0,WeatherDisplay:10.37,2013-07-03 06:32:00,
2013-07-02 23:37:00,79.4,62.8,29.83,ESE,103,0.0,0.0,57,0.00,CLR,SCT,0.00,0.0,WeatherDisplay:10.37,2013-07-03 06:37:00,
2013-07-02 23:42:00,79.1,62.6,29.83,ESE,103,0.0,0.0,57,0.00,CLR,SCT,0.00,0.0,WeatherDisplay:10.37,2013-07-03 06:42:00,
2013-07-02 23:44:00,79.1,62.6,29.83,ESE,103,0.0,0.0,57,0.00,CLR,SCT,0.00,0.0,WeatherDisplay:10.37,2013-07-03 06:44:00,
2013-07-02 23:49:00,78.8,62.8,29.83,ESE,103,0.0,0.0,58,0.00,CLR,SCT,0.00,0.0,WeatherDisplay:10.37,2013-07-03 06:49:00,
2013-07-02 23:55:00,78.6,63.1,29.83,ESE,103,0.0,0.0,59,0.00,CLR,SCT,0.00,0.0,WeatherDisplay:10.37,2013-07-03 06:55:00,